AirNav   Air Wisconsin pilot careers
 
 1094 users online  

0IS2 Northshore Glenbrook Hospital Heliport
Glenview, Illinois, USA

GOING TO GLENVIEW?


FAA INFORMATION EFFECTIVE 01 FEBRUARY 2018

Location

FAA Identifier: 0IS2
Lat/Long: 42-05-36.6900N / 087-51-10.0400W
42-05.611500N / 087-51.167333W
42.0935250 / -87.8527889
(estimated)
Elevation: 675 ft. / 206 m (estimated)
Variation: 00W (1901)
From city: 2 miles W of GLENVIEW, IL
Time zone: UTC -6 (UTC -5 during Daylight Saving Time)
Zip code: 60025

Heliport Operations

Heliport use: Private use. Permission required prior to landing
Activation date: 04/1982
Control tower: no
ARTCC: CHICAGO CENTER
FSS: KANKAKEE FLIGHT SERVICE STATION
Attendance: CONTINUOUS
Wind indicator: yes
Segmented circle: no
Lights: SS-SR

Heliport Communications

WX ASOS at PWK (2.5 nm NW): PHONE 847-465-0291
WX ASOS at ORD (7 nm S): PHONE 773-462-0118
WX AWOS-3 at 06C (13 nm SW): 128.275 ((847) 895-2887)
WX ASOS at MDW (19 nm S): PHONE 773-884-4424
WX ASOS at UGN (20 nm N): PHONE 847-782-0876

Nearby radio navigation aids

VOR radial/distance  VOR name  Freq  Var
ORDr018/6.8CHICAGO O'HARE VOR/DME113.9002E
OBKr152/8.8NORTHBROOK VOR/DME113.0002W
DPAr059/25.3DUPAGE VOR/DME108.4002E
CGTr338/37.2CHICAGO HEIGHTS VORTAC114.2002E
JOTr030/38.9JOLIET VORTAC112.3002E

Heliport Services

Runway Information

Helipad H1

Dimensions: 60 x 60 ft. / 18 x 18 m
Surface: concrete
Runway edge lights: FLD
Latitude: 42-05.611500N
Longitude: 087-51.167333W
Elevation: 675.0 ft.
Traffic pattern: leftleft

Heliport Ownership and Management from official FAA records

Ownership: Privately-owned
Owner: NORTHSHORE UNIVERSITY HEALTHSYSTEM
2650 RIDGE AVE
EVANSTON, IL 60201
Phone 847-570-2000
Manager: SEAN O'GRADY
NORTHSHORE UNIV HEALTHSYS-GLENBROOK, 2100 PFINGSTEN RD
GLENVIEW, IL 60025
Phone 847-657-5600

Instrument Procedures

There are no published instrument procedures at 0IS2.

Some nearby airports with instrument procedures:

KPWK - Chicago Executive Airport (3 nm NW)
KORD - Chicago O'Hare International Airport (7 nm S)
C81 - Campbell Airport (17 nm NW)
KMDW - Chicago Midway International Airport (19 nm S)
KUGN - Waukegan National Airport (20 nm N)
 
Loc | Ops | Rwys | IFR | FBO | Links
Com | Nav | Svcs | Stats | Notes

AirNav Hotels Sweepstakes
 
Area around 0IS2 (Northshore Glenbrook Hospital Heliport)
 
Road maps at: MapQuest Bing Google
 
Aerial photo
No photo
 
Sectional chart

 
Airport distance calculator
Flying to Northshore Glenbrook Hospital Heliport? Find the distance to fly.

From to 0IS2

Sunrise and sunset
Times for 24-Feb-2018
 Local
(UTC-6)
 Zulu
(UTC)
Morning civil twilight06:0712:07
Sunrise06:3512:35
Sunset17:3423:34
Evening civil twilight18:0200:02

Current date and time
Zulu (UTC)  24-Feb-2018 19:07:58
Local (UTC-6)  24-Feb-2018 13:07:58
 
METAR
KPWK 
3nm NW 
241852Z 09007KT 9SM OVC014 03/00 A3004 RMK AO2 SLP179 T00330000
KORD 
8nm SW 
241851Z 08009KT 10SM OVC015 03/M01 A3001 RMK AO2 SLP170 T00331006
K06C 
13nm SW 
241855Z AUTO 10009KT 10SM OVC014 03/00 A3000 RMK AO2 T00301002
KMDW 
19nm S 
241853Z 05008KT 10SM BKN016 OVC075 04/01 A3001 RMK AO2 SLP171 T00390006
KUGN 
19nm N 
241855Z 09009KT 5SM BR OVC013 02/M01 A3004 RMK AO2 SLP183 T00171006
TAF
KORD 
8nm SW 
241753Z 2418/2524 09010KT P6SM OVC015 TEMPO 2418/2420 -RA FM242200 11013G18KT P6SM VCSH OVC008 FM250400 13015G25KT 2SM -SHRA BR OVC006 FM250700 25022G33KT P6SM BKN020 FM251300 25018G28KT P6SM SKC
KMDW 
19nm S 
241753Z 2418/2524 09010KT P6SM OVC015 TEMPO 2418/2421 -RA FM242200 11013G18KT P6SM VCSH OVC008 FM250400 13015G25KT 2SM -SHRA BR OVC006 FM250700 25022G33KT P6SM BKN020 FM251300 25018G28KT P6SM SKC
NOTAMs
Click for the latest NOTAMs
NOTAMs are issued by the DoD/FAA and will open in a separate window not controlled by AirNav.

 

 
 

Would you like to see your business listed on this page?

 If your business provides an interesting product or service to pilots, flight crews, aircraft, or users of the Northshore Glenbrook Hospital Heliport, you should consider listing it here.  To start the listing process, click on the button below
 
Add a business
 

Other Pages about Northshore Glenbrook Hospital Heliport

Update a link
 
Copyright © AirNav, LLC. All rights reserved. Privacy Policy  Contact